GW1549 Weather Reports


time (UTC)temp
F
wind
direction
speed
knots
gust
knots
rain 1hr
in
rain 24hr
in
rain mn
in
humidity
%
barometer
mb
20260502194838 55 7 1.7 3.5 0.00 0.00 0.00 45 1010.1
20260502194248 55 40 2.6 2.6 0.00 0.00 0.00 47 1010.4
20260502193634 54 258 1.7 6.1 0.00 0.00 0.00 47 1010.1
20260502193038 54 314 1.7 2.6 0.00 0.00 0.00 46 1010.4
20260502192426 56 251 3.5 5.2 0.00 0.00 0.00 45 1010.4
20260502191852 56 189 1.7 1.7 0.00 0.00 0.00 47 1010.4
20260502190615 56 294 4.3 8.7 0.00 0.00 0.00 45 1010.4
20260502190018 57 217 3.5 6.1 0.00 0.00 0.00 45 1010.4
20260502185437 55 359 0.9 0.9 0.00 0.00 0.00 50 1010.4
20260502184255 56 21 1.7 1.7 0.00 0.00 0.00 48 1010.4
20260502183654 55 47 0.9 0.9 0.00 0.00 0.00 51 1010.8
20260502183016 54 181 2.6 3.5 0.00 0.00 0.00 48 1010.4
20260502182440 53 235 1.7 2.6 0.00 0.00 0.00 49 1010.4
20260502181833 53 10 0.9 0.9 0.00 0.00 0.00 49 1010.8
20260502181254 54 64 0.9 1.7 0.00 0.00 0.00 48 1010.4
20260502180621 55 287 1.7 1.7 0.00 0.00 0.00 47 1010.8
20260502164244 54 26 1.7 1.7 0.00 0.00 0.00 49 1011.1
20260502163631 55 74 2.6 3.5 0.00 0.00 0.00 47 1011.1
20260502163053 54 32 0.9 1.7 0.00 0.00 0.00 53 1011.5
20260502162442 52 343 1.7 1.7 0.00 0.00 0.00 54 1011.5
20260502161816 53 11 0.9 2.6 0.00 0.00 0.00 52 1011.5
20260502161221 53 56 0.9 0.9 0.00 0.00 0.00 53 1011.5
20260502160623 53 12 1.7 2.6 0.00 0.00 0.00 51 1011.5
20260502151833 51 263 7.0 7.0 0.00 0.00 0.00 55 1011.8
20260502151241 52 226 1.7 1.7 0.00 0.00 0.00 54 1011.8
20260502150650 51 6 0.9 1.7 0.00 0.00 0.00 56 1011.8
20260502130631 41 18 0.0 0.9 0.00 0.00 0.00 97 1011.8
20260502123635 39 317 0.0 0.0 0.00 0.00 0.00 99 1011.8
20260502122440 37 15 0.0 0.0 0.00 0.00 0.00 99 1011.8
20260502121222 36 60 0.0 0.0 0.00 0.00 0.00 99 1011.5
20260502120644 34 11 0.0 0.0 0.00 0.00 0.00 99 1011.5
20260502115451 34 358 0.0 0.0 0.00 0.00 0.00 99 1011.8
20260502114813 33 12 0.0 0.0 0.00 0.00 0.00 99 1011.5
20260502114232 33 0 0.0 0.0 0.00 0.00 0.00 99 1011.5
20260502113611 32 35 0.0 0.0 0.00 0.00 0.00 99 1011.8
20260502113039 32 13 0.0 0.0 0.00 0.00 0.00 99 1011.8
20260502112437 31 26 0.0 0.0 0.00 0.00 0.00 99 1011.8
20260502111828 31 26 0.0 0.0 0.00 0.00 0.00 99 1011.8
20260502111226 31 29 0.0 0.0 0.00 0.00 0.00 99 1011.5
20260502110017 31 19 0.0 0.0 0.00 0.00 0.00 99 1011.5
20260502105418 31 21 0.0 0.0 0.00 0.00 0.00 99 1011.5
20260502104829 31 14 0.0 0.0 0.00 0.00 0.00 99 1011.5
20260502104217 31 12 0.0 0.0 0.00 0.00 0.00 99 1011.5
20260502103635 31 13 0.0 0.0 0.00 0.00 0.00 99 1011.8
20260502103043 32 13 0.0 0.0 0.00 0.00 0.00 99 1011.5
20260502102419 32 12 0.0 0.0 0.00 0.00 0.00 99 1011.5
20260502101846 32 3 0.0 0.0 0.00 0.00 0.00 99 1011.5
20260502100630 32 18 0.0 0.0 0.00 0.00 0.00 99 1011.5
20260502091252 32 8 0.0 0.0 0.00 0.00 0.00 99 1011.8
20260502090624 32 19 0.0 0.0 0.00 0.00 0.00 99 1011.5
20260502071224 33 19 0.0 0.0 0.00 0.00 0.00 98 1010.8
20260502070652 33 15 0.0 0.0 0.00 0.00 0.00 98 1011.1
20260502070035 33 19 0.0 0.0 0.00 0.00 0.00 98 1011.1
20260502063651 34 10 0.0 0.0 0.00 0.00 0.00 98 1011.5
20260502063042 34 6 0.0 0.0 0.00 0.00 0.00 98 1011.5
20260502061814 34 8 0.0 0.0 0.00 0.00 0.00 98 1011.8
20260502061249 34 17 0.0 0.0 0.00 0.00 0.00 97 1011.8
20260502060622 35 14 0.0 0.0 0.00 0.00 0.00 97 1011.8
20260502060047 35 17 0.0 0.0 0.00 0.00 0.00 97 1011.8
20260502055448 35 7 0.0 0.0 0.00 0.00 0.00 97 1011.8
20260502054820 35 15 0.0 0.0 0.00 0.00 0.00 97 1011.8
20260502054250 35 26 0.0 0.0 0.00 0.00 0.00 97 1011.8
20260502053021 35 41 0.0 0.0 0.00 0.00 0.00 97 1011.8
20260502052415 36 12 0.0 0.0 0.00 0.00 0.00 97 1011.8
20260502051826 36 14 1.7 1.7 0.00 0.00 0.00 97 1011.8
20260502051220 36 15 0.0 0.0 0.00 0.00 0.00 96 1011.5
20260502050628 36 7 0.0 0.0 0.00 0.00 0.00 96 1011.8
20260502050039 36 10 0.0 0.0 0.00 0.00 0.00 96 1011.8
20260502045433 36 0 0.0 0.0 0.00 0.00 0.00 96 1011.8
20260502044838 37 14 0.0 0.0 0.00 0.00 0.00 96 1012.1
20260502043629 37 347 0.0 0.0 0.00 0.00 0.00 95 1012.1
20260502043043 37 8 0.0 0.0 0.00 0.00 0.00 95 1012.1
20260502042435 37 14 0.0 0.0 0.00 0.00 0.00 95 1011.8
20260502041810 37 14 0.0 0.0 0.00 0.00 0.00 95 1011.8
20260502041217 37 12 0.0 0.0 0.00 0.00 0.00 94 1011.8
20260502040649 38 21 0.0 0.0 0.00 0.00 0.00 94 1011.8
20260502040019 37 12 0.0 0.0 0.00 0.00 0.00 94 1011.8
20260502035442 37 17 0.0 0.0 0.00 0.00 0.00 93 1011.5
20260502034810 38 16 0.0 0.0 0.00 0.00 0.00 93 1011.8
20260502034246 38 16 0.0 0.0 0.00 0.00 0.00 92 1011.8
20260502033649 38 13 0.0 0.0 0.00 0.00 0.00 92 1011.8
20260502033012 39 20 0.0 0.0 0.00 0.00 0.00 92 1011.8
20260502032426 38 23 0.0 0.0 0.00 0.00 0.00 91 1011.5
20260502031841 39 21 0.0 0.0 0.00 0.00 0.00 91 1011.8
20260502031213 40 33 0.0 0.0 0.00 0.00 0.00 90 1011.8
20260502030616 40 333 0.0 0.0 0.00 0.00 0.00 90 1011.8
20260502030046 40 10 0.0 0.0 0.00 0.00 0.00 89 1011.8
20260502025414 40 11 0.0 0.0 0.00 0.00 0.00 89 1012.1
20260502024827 41 356 0.0 0.0 0.00 0.00 0.00 89 1011.8
20260502024219 41 358 0.0 0.0 0.00 0.00 0.00 88 1012.1
20260502023624 41 4 0.0 0.0 0.00 0.00 0.00 88 1011.8
20260502023047 42 350 0.0 0.0 0.00 0.00 0.00 88 1011.8
20260502022427 41 359 0.0 0.0 0.00 0.00 0.00 88 1011.5
20260502021812 41 11 0.0 0.0 0.00 0.00 0.00 88 1011.5
20260502021234 42 2 0.0 0.0 0.00 0.00 0.00 87 1011.1
20260502020614 42 15 0.0 0.0 0.00 0.00 0.00 87 1011.1
20260502020036 42 19 0.0 0.0 0.00 0.00 0.00 86 1011.1
20260502015431 42 33 0.0 0.0 0.00 0.00 0.00 85 1010.8
20260502014842 43 34 0.0 0.0 0.00 0.00 0.00 84 1010.8
20260502014227 43 27 0.0 0.0 0.00 0.00 0.00 85 1011.1
20260502013620 43 31 0.0 0.9 0.00 0.00 0.00 85 1010.8
20260502013036 43 24 0.0 0.0 0.00 0.00 0.00 85 1010.8
20260502012450 44 33 0.0 0.0 0.00 0.00 0.00 84 1010.8
20260502011841 44 11 0.0 0.0 0.00 0.00 0.00 83 1010.8
20260502011224 44 351 0.0 0.0 0.00 0.00 0.00 82 1010.4
20260502010625 45 18 0.0 0.0 0.00 0.00 0.00 80 1010.4
20260502010053 45 15 0.0 0.0 0.00 0.00 0.00 80 1010.4
20260502005446 46 11 0.0 0.0 0.00 0.00 0.00 80 1010.1
20260502004843 46 11 0.0 0.0 0.00 0.00 0.00 79 1010.1
20260502004227 46 54 0.9 0.9 0.00 0.00 0.00 79 1009.8
20260502003649 47 35 0.0 0.0 0.00 0.00 0.00 78 1009.8
20260502002449 48 25 0.0 0.0 0.00 0.00 0.00 76 1009.8
20260502001832 48 353 2.6 2.6 0.00 0.00 0.00 74 1009.8
20260502001246 48 66 0.9 1.7 0.00 0.00 0.00 74 1009.8
20260502000031 49 56 0.0 0.0 0.00 0.00 0.00 72 1009.4
20260501235453 49 45 0.9 0.9 0.00 0.00 0.00 72 1009.4
20260501234840 49 337 3.5 5.2 0.00 0.00 0.00 71 1009.1
20260501234253 50 327 2.6 2.6 0.00 0.00 0.00 71 1009.1
20260501233644 50 24 0.0 0.9 0.00 0.00 0.00 70 1009.1
20260501233024 50 55 1.7 2.6 0.00 0.00 0.00 69 1008.8
20260501232442 51 271 0.9 1.7 0.00 0.00 0.00 70 1008.8
20260501231817 51 316 1.7 1.7 0.00 0.00 0.00 71 1008.4
20260501231255 52 252 0.9 0.9 0.00 0.00 0.00 70 1008.8
20260501230650 52 189 2.6 3.5 0.00 0.00 0.00 68 1008.8
20260501230036 53 53 0.9 1.7 0.00 0.00 0.00 66 1008.8
20260501225415 52 17 1.7 5.2 0.00 0.00 0.00 69 1008.8
20260501224827 53 9 0.9 1.7 0.00 0.00 0.00 69 1008.4
20260501224233 53 35 1.7 2.6 0.00 0.00 0.00 70 1008.4
20260501223617 53 17 0.9 1.7 0.00 0.00 0.00 71 1008.1
20260501223053 53 22 0.0 0.0 0.00 0.00 0.00 73 1008.4
20260501222451 53 338 0.0 0.9 0.00 0.00 0.00 74 1008.1
20260501221839 53 19 1.7 1.7 0.00 0.00 0.00 74 1008.1
20260501221246 53 105 0.9 0.9 0.00 0.00 0.00 74 1008.1
20260501220645 53 91 1.7 1.7 0.00 0.00 0.00 75 1008.1
20260501220021 53 73 0.9 1.7 0.00 0.00 0.00 74 1007.7
20260501215415 53 0 0.0 0.9 0.00 0.00 0.00 73 1008.1
20260501214238 53 358 3.5 6.1 0.00 0.00 0.00 72 1008.1
20260501213041 56 1 1.7 1.7 0.00 0.00 0.00 71 1008.1
20260501211829 54 10 1.7 2.6 0.00 0.00 0.00 69 1007.7
20260501211210 55 342 0.9 1.7 0.00 0.00 0.00 69 1007.7
20260501210617 55 68 2.6 3.5 0.00 0.00 0.00 69 1007.7
20260501210030 54 302 2.6 3.5 0.00 0.00 0.00 71 1007.7
20260501205421 54 11 1.7 2.6 0.00 0.00 0.00 74 1007.7
20260501204849 54 223 1.7 1.7 0.00 0.00 0.00 77 1007.4
20260501203622 55 319 4.3 7.0 0.00 0.00 0.00 73 1007.4
20260501202444 54 47 0.9 0.9 0.00 0.00 0.00 78 1007.7
20260501201809 52 345 0.0 0.0 0.00 0.00 0.00 80 1007.4
20260501201239 52 20 0.0 0.9 0.00 0.00 0.00 80 1007.7
20260501200048 52 302 2.6 3.5 0.00 0.00 0.00 80 1007.7